TimeHST,TemperatureF,Dew PointF,Humidity,Sea Level PressureIn,VisibilityMPH,Wind Direction,Wind SpeedMPH,Gust SpeedMPH,PrecipitationIn,Events,Conditions,WindDirDegrees,DateUTC
12:57 AM,77.0,66.9,71,30.01,10.0,ESE,11.5,18.4,N/A,,Mostly Cloudy,110,2013-07-18 10:57:00
1:57 AM,75.2,68.0,78,29.99,10.0,ENE,9.2,-,N/A,,Mostly Cloudy,70,2013-07-18 11:57:00
2:57 AM,75.2,68.0,78,29.99,-9999.0,ENE,8.1,-,N/A,,Mostly Cloudy,70,2013-07-18 12:57:00
3:57 AM,73.4,66.9,80,29.98,10.0,East,10.4,16.1,N/A,,Mostly Cloudy,80,2013-07-18 13:57:00
4:04 AM,-9999,-9999,N/A,30.00,6.2,East,8.1,16.1,N/A,,Overcast,80,2013-07-18 14:04:00
4:36 AM,73.4,68.0,83,30.00,6.2,East,10.4,-,N/A,,Scattered Clouds,80,2013-07-18 14:36:00
4:57 AM,73.4,68.0,83,29.99,7.0,East,9.2,-,N/A,,Scattered Clouds,90,2013-07-18 14:57:00
5:57 AM,73.4,68.0,83,30.00,7.0,East,6.9,-,N/A,,Mostly Cloudy,80,2013-07-18 15:57:00
6:57 AM,76.1,68.0,76,30.02,10.0,East,9.2,-,N/A,,Mostly Cloudy,80,2013-07-18 16:57:00
7:57 AM,78.8,66.9,67,30.03,10.0,ENE,9.2,-,N/A,,Mostly Cloudy,70,2013-07-18 17:57:00
8:07 AM,78.8,68.0,69,30.05,6.2,East,8.1,-,N/A,,Mostly Cloudy,80,2013-07-18 18:07:00
8:35 AM,78.8,68.0,69,30.05,6.2,East,11.5,20.7,N/A,,Scattered Clouds,80,2013-07-18 18:35:00
8:57 AM,78.8,68.0,69,30.03,10.0,ENE,9.2,17.3,N/A,,Partly Cloudy,70,2013-07-18 18:57:00
9:57 AM,80.6,66.9,63,30.04,10.0,ENE,9.2,17.3,N/A,,Scattered Clouds,70,2013-07-18 19:57:00
10:57 AM,80.6,68.0,65,30.04,10.0,ENE,12.7,20.7,N/A,,Scattered Clouds,70,2013-07-18 20:57:00
11:57 AM,80.6,68.0,65,30.03,10.0,ENE,10.4,-,N/A,,Overcast,70,2013-07-18 21:57:00
12:57 PM,80.6,66.9,63,30.01,10.0,ENE,8.1,-,N/A,,Mostly Cloudy,70,2013-07-18 22:57:00
1:57 PM,80.6,68.0,65,30.01,10.0,NNE,9.2,-,N/A,,Mostly Cloudy,30,2013-07-18 23:57:00
2:57 PM,82.4,70.0,66,30.00,10.0,ENE,11.5,18.4,N/A,,Mostly Cloudy,60,2013-07-19 00:57:00
3:57 PM,82.4,66.9,59,29.99,10.0,ENE,11.5,16.1,N/A,,Overcast,70,2013-07-19 01:57:00
4:57 PM,82.4,68.0,62,29.99,10.0,ENE,10.4,-,N/A,,Overcast,70,2013-07-19 02:57:00
5:57 PM,80.6,68.0,65,29.99,10.0,ENE,6.9,-,N/A,,Overcast,60,2013-07-19 03:57:00
6:57 PM,78.8,69.1,72,30.00,10.0,ENE,5.8,-,N/A,,Overcast,60,2013-07-19 04:57:00
7:57 PM,77.0,69.1,76,30.02,10.0,ENE,4.6,-,0.00,,Mostly Cloudy,60,2013-07-19 05:57:00
8:57 PM,77.0,70.0,79,30.04,10.0,ENE,4.6,-,0.00,,Partly Cloudy,60,2013-07-19 06:57:00
9:57 PM,73.4,70.0,89,30.05,10.0,NE,4.6,-,N/A,,Clear,50,2013-07-19 07:57:00
10:57 PM,73.4,71.1,92,30.05,10.0,Calm,Calm,-,N/A,,Clear,0,2013-07-19 08:57:00
11:57 PM,73.4,70.0,89,30.05,10.0,Calm,Calm,-,N/A,,Clear,0,2013-07-19 09:57:00